Wind from 340 at 2 knots

Air temperature 6.0° C
Dewpoint 4.0° C

Last reported at 2014-Apr-24 02:00 UTC.
Time now 2014-Apr-24 04:12 UTC

Location: S 51°37' W 069°19'.
View on Google Maps.

See reports from other nearby stations

Tides Stations Pressure Air Temp Water Temp Dewpoint Dewpoint depression Visibility Wind Speed Wind Dir Waves Ship positions

  
sailing weather and tide predictions

Piloto Civil Norberto Fernandez weather

date/time (UTC)wind fromknots sea level pressurealtimeterstation pressurevisibilityair tempwater tempwave heightnotes
2014-Apr-24 03:00 6.0
2014-Apr-24 02:00 340 2 6.0
2014-Apr-24 01:00 6.0
2014-Apr-24 00:00 090 3 6.0
2014-Apr-23 23:00 020 3 7.0
2014-Apr-23 22:00 020 2 7.0
2014-Apr-23 21:00 050 5 9.0
2014-Apr-23 20:00 050 8 11.0
2014-Apr-23 19:00 050 5 13.0
2014-Apr-23 18:00 12.0
2014-Apr-23 17:00 13.0
2014-Apr-23 16:00 11.0
2014-Apr-23 15:00 9.0
2014-Apr-23 14:00 5.0
2014-Apr-23 13:00 1.0
2014-Apr-23 12:00 -1.0
2014-Apr-23 11:00 -1.0
2014-Apr-23 10:00 -1.0
2014-Apr-23 09:00 -2.0
2014-Apr-23 08:00 -1.0
2014-Apr-23 07:00 230 2 1.0
2014-Apr-23 06:00 290 3 5.0
2014-Apr-23 05:00 020 2 6.0
2014-Apr-23 04:00 320 3 7.0
2014-Apr-23 03:00 8.0
2014-Apr-23 02:00 6.0
2014-Apr-23 01:00 360 1 5.0
2014-Apr-23 00:00 5.0
2014-Apr-22 23:00 7.0
2014-Apr-22 22:00 8.0
2014-Apr-22 21:00 11.0
2014-Apr-22 20:00 13.0
2014-Apr-22 19:00 290 4 12.0
2014-Apr-22 18:00 270 6 13.0
2014-Apr-22 17:00 230 13 13.0
2014-Apr-22 16:00 230 12 12.0
2014-Apr-22 15:00 250 1 8.0
2014-Apr-22 14:00 250 1 6.0
2014-Apr-22 13:00 250 5 3.0
2014-Apr-22 12:00 250 10 4.0
2014-Apr-22 11:00 250 10 4.0
2014-Apr-22 10:00 250 12 4.0
2014-Apr-22 09:00 250 10 5.0
2014-Apr-22 08:00 230 9 5.0
2014-Apr-22 07:00 250 15 8.0
2014-Apr-22 06:00 250 10 5.4 8.0
2014-Apr-22 05:00 250 9 5.4 7.0
2014-Apr-22 04:00 5.4 7.0 Light rain.